Attalla, AL

8:30 AM CST on December 03, 2016 (GMT -0600)
Gadsden Municipal

Weather History for KGAD - January, 2014

Change the Weather History Date:

Sunday, January 5, 2014

  Actual Average Record
Temperature  
Mean Temperature 44 °F -  
Max Temperature 55 °F 50 °F 75 °F (1950)
Min Temperature 30 °F 31 °F 10 °F (1999)
Degree Days  
Heating Degree Days 22    
Moisture  
Dew Point 35 °F    
Average Humidity 73    
Maximum Humidity 82    
Minimum Humidity 65    
Precipitation  
Precipitation 0.16 in - - ()
Sea Level Pressure  
Sea Level Pressure 29.96 in    
Wind  
Wind Speed 6 mph (East)    
Max Wind Speed 22 mph    
Max Gust Speed 31 mph    
Visibility 10 miles    
Events      
Averages and records for this station are not official NWS values.
T = Trace of Precipitation, MM = Missing Value Source: NWS Daily Summary

Daily Weather History Graph

Daily Weather History Graph

Search for Another Location

Airport or City:

Trip Planner

Search our weather history database for the weather conditions in past years. The results will help you decide how hot, cold, wet, or windy it might be!

Date:

Astronomy

Jan. 05, 2014 Rise Set
Actual Time 6:50 AM CST 4:49 PM CST
Civil Twilight 6:22 AM CST 5:17 PM CST
Nautical Twilight 5:51 AM CST 5:48 PM CST
Astronomical Twilight 5:21 AM CST 6:18 PM CST
Moon 9:45 AM CST (1/5) 10:00 PM CST (1/5)
Length of Visible Light 10h 54m
Length of Day
9h 59m
Waxing Crescent, 25% of the Moon is Illuminated
Jan 5
Waxing Crescent
Jan 7
First Quarter
Jan 15
Full
Jan 23
Last Quarter
Jan 30
New

Hourly Weather History & Observations

Time (CST) Temp. Windchill Dew Point Humidity Pressure Visibility Wind Dir Wind Speed Gust Speed Precip Events Conditions
12:15 AM 39.2 °F 34.2 °F 28.4 °F 65% 30.14 in 10.0 mi East 6.9 mph - N/A   Overcast
12:35 AM 37.4 °F 32.1 °F 28.4 °F 70% 30.13 in 10.0 mi East 6.9 mph - N/A   Overcast
12:55 AM 37.4 °F 32.1 °F 26.6 °F 65% 30.13 in 10.0 mi East 6.9 mph - N/A   Mostly Cloudy
1:15 AM 35.6 °F 31.7 °F 26.6 °F 70% 30.13 in 10.0 mi ENE 4.6 mph - N/A   Clear
1:35 AM 33.8 °F 29.6 °F 26.6 °F 75% 30.13 in 10.0 mi ENE 4.6 mph - N/A   Clear
1:55 AM 33.8 °F 30.8 °F 26.6 °F 75% 30.13 in 10.0 mi ENE 3.5 mph - N/A   Scattered Clouds
2:15 AM 35.6 °F 31.7 °F 28.4 °F 75% 30.13 in 10.0 mi ENE 4.6 mph - N/A   Overcast
2:35 AM 35.6 °F 29.9 °F 28.4 °F 75% 30.13 in 10.0 mi East 6.9 mph - N/A   Overcast
2:55 AM 35.6 °F 30.7 °F 28.4 °F 75% 30.13 in 10.0 mi ENE 5.8 mph - N/A   Overcast
3:15 AM 37.4 °F 30.8 °F 28.4 °F 70% 30.13 in 10.0 mi ENE 9.2 mph - N/A   Overcast
3:35 AM 37.4 °F 31.4 °F 28.4 °F 70% 30.12 in 10.0 mi East 8.1 mph - N/A   Overcast
3:55 AM 37.4 °F 31.4 °F 28.4 °F 70% 30.11 in 10.0 mi ENE 8.1 mph - N/A   Overcast
4:15 AM 37.4 °F 31.4 °F 28.4 °F 70% 30.10 in 10.0 mi East 8.1 mph - N/A   Overcast
4:35 AM 37.4 °F 31.4 °F 28.4 °F 70% 30.10 in 10.0 mi ENE 8.1 mph - N/A   Overcast
4:55 AM 37.4 °F 30.8 °F 30.2 °F 75% 30.09 in 10.0 mi East 9.2 mph - N/A   Overcast
5:15 AM 37.4 °F 32.8 °F 30.2 °F 75% 30.09 in 10.0 mi ENE 5.8 mph - N/A   Overcast
5:35 AM 37.4 °F 32.1 °F 30.2 °F 75% 30.08 in 10.0 mi ENE 6.9 mph - N/A   Overcast
5:55 AM 37.4 °F 30.3 °F 30.2 °F 75% 30.07 in 10.0 mi ENE 10.4 mph - N/A   Overcast
6:15 AM 37.4 °F 32.1 °F 30.2 °F 75% 30.08 in 10.0 mi East 6.9 mph - N/A   Overcast
6:35 AM 37.4 °F 32.1 °F 30.2 °F 75% 30.08 in 10.0 mi East 6.9 mph - N/A   Overcast
6:55 AM 37.4 °F 31.4 °F 30.2 °F 75% 30.08 in 10.0 mi East 8.1 mph - N/A   Overcast
7:15 AM 37.4 °F 32.1 °F 30.2 °F 75% 30.07 in 10.0 mi East 6.9 mph - N/A   Overcast
7:35 AM 37.4 °F 33.8 °F 30.2 °F 75% 30.07 in 10.0 mi ENE 4.6 mph - N/A   Overcast
7:55 AM 39.2 °F 37.0 °F 30.2 °F 70% 30.08 in 10.0 mi East 3.5 mph - N/A   Overcast
8:15 AM 39.2 °F 33.6 °F 30.2 °F 70% 30.06 in 10.0 mi ENE 8.1 mph - N/A   Overcast
8:35 AM 39.2 °F 33.0 °F 30.2 °F 70% 30.06 in 10.0 mi East 9.2 mph - N/A   Overcast
8:55 AM 39.2 °F 34.2 °F 30.2 °F 70% 30.05 in 9.0 mi ENE 6.9 mph - N/A   Overcast
9:15 AM 39.2 °F 35.0 °F 32.0 °F 75% 30.05 in 9.0 mi East 5.8 mph - N/A   Overcast
9:35 AM 41.0 °F 35.8 °F 33.8 °F 76% 30.04 in 9.0 mi ENE 8.1 mph - N/A   Overcast
9:55 AM 42.8 °F 40.1 °F 33.8 °F 70% 30.03 in 9.0 mi NE 4.6 mph - N/A   Overcast
10:15 AM 42.8 °F - 33.8 °F 70% 30.03 in 10.0 mi Calm Calm - N/A   Overcast
10:35 AM 42.8 °F - 33.8 °F 70% 30.02 in 10.0 mi Calm Calm - N/A   Overcast
10:55 AM 42.8 °F 39.3 °F 33.8 °F 70% 29.99 in 10.0 mi ENE 5.8 mph - N/A   Overcast
11:15 AM 42.8 °F - 33.8 °F 70% 29.98 in 10.0 mi Calm Calm - N/A   Overcast
11:35 AM 44.6 °F 42.2 °F 35.6 °F 71% 29.96 in 10.0 mi SE 4.6 mph - N/A   Overcast
11:55 AM 44.6 °F - 35.6 °F 71% 29.95 in 10.0 mi Calm Calm - N/A   Overcast
12:15 PM 44.6 °F - 35.6 °F 71% 29.94 in 8.0 mi Calm Calm - N/A   Overcast
12:35 PM 44.6 °F 42.2 °F 35.6 °F 71% 29.91 in 10.0 mi ESE 4.6 mph - N/A   Overcast
12:55 PM 46.4 °F - 37.4 °F 71% 29.90 in 10.0 mi Calm Calm - N/A   Overcast
1:15 PM 46.4 °F - 37.4 °F 71% 29.89 in 10.0 mi Calm Calm - N/A   Overcast
1:35 PM 46.4 °F - 37.4 °F 71% 29.90 in 10.0 mi Calm Calm - N/A   Overcast
1:55 PM 46.4 °F - 37.4 °F 71% 29.88 in 10.0 mi Calm Calm - N/A   Overcast
2:15 PM 48.2 °F - 39.2 °F 71% 29.87 in 10.0 mi SE 6.9 mph - N/A   Overcast
2:35 PM 50.0 °F - 39.2 °F 66% 29.84 in 10.0 mi SE 8.1 mph - N/A   Overcast
2:55 PM 50.0 °F - 39.2 °F 66% 29.84 in 10.0 mi SSE 6.9 mph - N/A   Overcast
3:15 PM 51.8 °F - 41.0 °F 67% 29.84 in 10.0 mi South 3.5 mph - N/A   Overcast
3:35 PM 51.8 °F - 42.8 °F 71% 29.84 in 10.0 mi South 3.5 mph - N/A   Overcast
3:55 PM 51.8 °F - 42.8 °F 71% 29.83 in 10.0 mi Calm Calm - N/A   Overcast
4:15 PM 51.8 °F - 42.8 °F 71% 29.82 in 10.0 mi Calm Calm - N/A   Overcast
4:35 PM 51.8 °F - 42.8 °F 71% 29.81 in 10.0 mi South 3.5 mph - N/A   Mostly Cloudy
4:55 PM 53.6 °F - 44.6 °F 72% 29.79 in 10.0 mi SSW 4.6 mph - N/A   Scattered Clouds
5:15 PM 55.4 °F - 46.4 °F 72% 29.78 in 10.0 mi South 5.8 mph - N/A   Scattered Clouds
5:35 PM 55.4 °F - 46.4 °F 72% 29.79 in 10.0 mi SW 6.9 mph - N/A   Mostly Cloudy
5:55 PM 55.4 °F - 46.4 °F 72% 29.79 in 10.0 mi SSW 8.1 mph - N/A   Overcast
6:15 PM 55.4 °F - 46.4 °F 72% 29.78 in 9.0 mi SSW 9.2 mph - N/A   Overcast
6:35 PM 53.6 °F - 48.2 °F 82% 29.77 in 10.0 mi South 5.8 mph - 0.01 in   Overcast
6:55 PM 53.6 °F - 48.2 °F 82% 29.77 in 10.0 mi SW 5.8 mph - 0.01 in   Overcast
7:15 PM 53.6 °F - 48.2 °F 82% 29.77 in 10.0 mi West 9.2 mph - N/A   Overcast
7:35 PM 53.6 °F - 48.2 °F 82% 29.76 in 10.0 mi SSW 5.8 mph - N/A   Overcast
7:55 PM 53.6 °F - 48.2 °F 82% 29.75 in 8.0 mi WSW 6.9 mph - 0.02 in   Overcast
8:15 PM 53.6 °F - 48.2 °F 82% 29.75 in 5.0 mi WSW 6.9 mph - 0.02 in   Overcast
8:35 PM 50.0 °F - 44.6 °F 82% 29.81 in 9.0 mi WNW 15.0 mph 28.8 mph 0.07 in   Overcast
8:55 PM 46.4 °F 40.7 °F 39.2 °F 76% 29.83 in 5.0 mi WNW 12.7 mph 17.3 mph 0.08 in   Overcast
9:15 PM 44.6 °F 38.1 °F 37.4 °F 76% 29.86 in 7.0 mi WNW 13.8 mph 24.2 mph 0.02 in   Overcast
9:35 PM 42.8 °F 33.8 °F 37.4 °F 81% 29.87 in 6.0 mi WNW 21.9 mph 31.1 mph 0.02 in   Overcast
9:55 PM 37.4 °F 28.5 °F 30.2 °F 75% 29.91 in 10.0 mi WNW 15.0 mph 28.8 mph 0.03 in   Overcast
10:15 PM 35.6 °F 26.6 °F 28.4 °F 75% 29.93 in 10.0 mi WNW 13.8 mph 24.2 mph N/A   Overcast
10:35 PM 33.8 °F 23.5 °F 26.6 °F 75% 29.94 in 10.0 mi West 16.1 mph 24.2 mph 0.01 in   Overcast
10:55 PM 33.8 °F 25.3 °F 26.6 °F 75% 29.94 in 7.0 mi WNW 11.5 mph 21.9 mph 0.02 in   Overcast
11:15 PM 32.0 °F 24.8 °F 26.6 °F 80% 29.96 in 9.0 mi NW 8.1 mph - N/A   Overcast
11:35 PM 32.0 °F 20.5 °F 26.6 °F 80% 29.98 in 10.0 mi West 18.4 mph 24.2 mph N/A   Overcast
11:55 PM 30.2 °F 20.2 °F 24.8 °F 80% 30.00 in 10.0 mi NW 12.7 mph 25.3 mph N/A   Overcast